• Join FlightAware (Why Join?)
  • Login
  • US Flag GB Flag 
05:11 EDT


 

Airport Tracker/Info


-or-


 

Live Flight TrackerFlight Track Log ✈ N449ND ✈ 14-Jan-2014 ✈ KFPR - KFPR

Flight Track Log - Related Links

Times and Time Zones

All times are in EST time to prevent confusion due to time zone crossing. See the N449ND flight status page for this flight to view local times or setup timezone preferences in your user account.

Time Position Orientation Groundspeed Altitude Reporting Facility
EST Latitude Longitude Course Direction KTS MPH feet Rate Location/Type
17:24 27.5011 -80.4086 347° North 90 104 1,200  Level Miami Center
17:25 27.5069 -80.4322 286° West 83 96 1,900 600 Climbing Miami Center
17:26 27.5106 -80.4558 280° West 83 96 2,500 600 Climbing Miami Center
17:27 27.5119 -80.4792 274° West 83 96 3,100 240 Climbing Miami Center
17:28 27.4936 -80.4597 137° Southeast 47 54 3,000 -60 Descending Miami Center
17:29 27.4733 -80.4333 131° Southeast 92 106 3,000  Level Miami Center
17:30 27.4975 -80.3726 347° North  Level Estimated
17:30 27.4553 -80.4072 128° Southeast 107 123 3,000  Level Miami Center
17:31 27.4414 -80.3811 121° Southeast 107 123 3,000 -60 Level Miami Center
17:32 27.4419 -80.3506 89° East 101 116 2,900 -60 Descending Miami Center
17:33 27.4594 -80.3183 59° Northeast 101 116 2,900  Level Miami Center
17:34 27.4894 -80.2911 39° Northeast 118 136 3,000  Climbing Miami Center
17:35 27.5131 -80.2639 46° Northeast 118 136 2,900  Descending Miami Center
17:36 27.5386 -80.2389 41° Northeast 118 136 3,000  Climbing Miami Center
17:37 27.5661 -80.2233 27° Northeast 118 136 3,000  Level Miami Center
17:38 27.5956 -80.2100 22° Northeast 118 136 3,000  Level Miami Center
17:39 27.6211 -80.1872 38° Northeast 104 120 3,100  Climbing Miami Center
17:40 27.6136 -80.1519 103° East 100 115 3,000  Descending Miami Center
17:41 27.5992 -80.1444 155° Southeast 78 90 3,100  Climbing Miami Center
17:42 27.5925 -80.1700 254° West 46 53 3,000 -360 Descending Miami Center
17:43 27.5814 -80.1956 244° Southwest 81 93 2,400 -600 Descending Miami Center
17:44 27.5892 -80.2239 287° West 86 99 1,800 -300 Descending Miami Center
17:45 27.5947 -80.2475 285° West 86 99 1,900  Climbing Miami Center
17:46 27.6025 -80.2689 292° West 86 99 1,800 -60 Descending Miami Center
17:47 27.6106 -80.2925 291° West 91 105 1,800 -60 Level Miami Center
17:48 27.6203 -80.3186 293° West 86 99 1,700 -300 Descending Miami Center
17:49 27.6258 -80.3422 285° West 86 99 1,300 -480 Descending Miami Center
17:50 27.6358 -80.3636 298° West 86 99 800 -360 Descending Miami Center
17:51 27.6394 -80.3825 282° West 80 92 600 -180 Descending Miami Center
17:52 27.6494 -80.4061 296° West 70 81 500 180 Descending Miami Center
17:53 27.6508 -80.4297 274° West 70 81 1,000 540 Climbing Miami Center
17:54 27.6461 -80.4506 256° West 70 81 1,600 480 Climbing Miami Center
17:55 27.6478 -80.4717 275° West 70 81 2,000 360 Climbing Miami Center
17:56 27.6536 -80.4953 286° West 75 86 2,400 420 Climbing Miami Center
17:57 27.6569 -80.5236 278° West 86 99 2,900 300 Climbing Miami Center
17:58 27.6342 -80.5158 163° South 56 64 3,000  Climbing Miami Center
17:59 27.6094 -80.5081 164° South 92 106 3,000  Level Miami Center
18:00 27.5867 -80.4956 154° Southeast 97 112 3,000  Level Miami Center
18:01 27.5661 -80.4786 144° Southeast 102 117 3,000  Level Miami Center
18:02 27.5694 -80.4364 85° East 103 119 3,000  Level Miami Center
18:03 27.5681 -80.4014 93° East 109 125 3,000 -60 Level Miami Center
18:04 27.5689 -80.3661 88° East 109 125 2,900 -60 Descending Miami Center
18:05 27.5719 -80.3333 84° East 109 125 2,900  Level Miami Center
18:06 27.5644 -80.3006 104° East 104 120 3,000  Climbing Miami Center
18:07 27.5631 -80.2653 93° East 104 120 3,000  Level Miami Center
18:08 27.5597 -80.2325 97° East 104 120 3,000  Level Miami Center
18:09 27.5583 -80.2019 93° East 104 120 3,000  Level Miami Center
18:10 27.5569 -80.1644 92° East 104 120 3,000  Level Miami Center
18:11 27.5494 -80.1267 103° East 104 120 3,000  Level Miami Center
18:12 27.5544 -80.0894 81° East 109 125 3,000  Level Miami Center
18:13 27.5758 -80.0689 40° Northeast 102 117 3,000  Level Miami Center
18:14 27.5672 -80.0897 245° Southwest 19 22 3,000  Level Miami Center
18:15 27.5583 -80.1106 244° Southwest 56 64 3,000  Level Miami Center
18:16 27.5533 -80.1386 259° West 87 100 3,000 -120 Level Miami Center
18:17 27.5744 -80.1319 16° North 78 90 2,800 -60 Descending Miami Center
18:18 27.5772 -80.0969 85° East 79 91 2,900  Climbing Miami Center
18:19 27.5650 -80.0942 169° South 59 68 2,900  Level Miami Center
18:20 27.5561 -80.1175 247° West 54 62 3,000  Climbing Miami Center
18:21 27.5431 -80.1358 231° Southwest 77 89 2,900 -120 Descending Miami Center
18:22 27.5200 -80.1400 189° South 77 89 2,800 -240 Descending Miami Center
18:23 27.5011 -80.1511 208° Southwest 82 94 2,500 -360 Descending Miami Center
18:24 27.4758 -80.1528 183° South 94 108 2,100 -300 Descending Miami Center
18:25 27.4547 -80.1661 209° Southwest 87 100 2,000 -240 Descending Miami Center
18:26 27.4583 -80.1919 279° West 68 78 1,700 -240 Descending Miami Center
18:27 27.4661 -80.2181 289° West 89 102 1,600 -60 Descending Miami Center
18:28 27.4697 -80.2392 281° West 89 102 1,600  Level Miami Center
18:29 27.4753 -80.2650 284° West 89 102 1,600 -240 Level Miami Center
18:30 27.4831 -80.2886 290° West 89 102 1,200 -420 Descending Miami Center
18:31 27.4889 -80.3122 286° West 84 97 800 -300 Descending Miami Center
18:32 27.4944 -80.3358 285° West 79 91 600 -240 Descending Miami Center
18:33 27.4983 -80.3547 283° West 79 91 400 120 Descending Miami Center
18:34 27.4875 -80.3731 236° Southwest 74 85 900 600 Climbing Miami Center
18:35 27.4564 -80.3650 167° South 88 101 1,600 540 Climbing Miami Center
18:36 27.4419 -80.3483 134° Southeast 89 102 2,000 120 Climbing Miami Center
18:37 27.4514 -80.3089 75° East 93 107 1,900  Descending Miami Center
18:38 27.4625 -80.2786 68° East 115 132 2,000  Climbing Miami Center
18:39 27.4800 -80.2442 60° Northeast 120 138 2,000 -60 Level Miami Center
18:40 27.4914 -80.2094 70° East 110 127 1,900 -120 Descending Miami Center
18:41 27.5106 -80.1911 40° Northeast 100 115 1,800  Descending Miami Center
18:42 27.5356 -80.1967 349° North 83 96 2,000 60 Climbing Miami Center
18:43 27.5625 -80.2019 350° North 95 109 2,000  Level Miami Center
18:44 27.5514 -80.2250 241° Southwest 64 74 2,000 -240 Level Miami Center
18:45 27.5383 -80.2481 237° Southwest 82 94 1,600 -540 Descending Miami Center
18:46 27.5275 -80.2711 242° Southwest 89 102 1,000 -480 Descending Miami Center
18:47 27.5206 -80.2922 250° West 89 102 700 -180 Descending Miami Center
18:48 27.5097 -80.3128 239° Southwest 84 97 700 -60 Level Miami Center
18:49 27.4925 -80.3311 223° Southwest 84 97 600 -120 Descending Miami Center
18:50 27.4756 -80.3469 220° Southwest 79 91 500 -120 Descending Miami Center